�������l�o���
Date,Time,MP-1(��Sv/h),MP-2(��Sv/h),MP-3(��Sv/h),MP-4(��Sv/h),MP-5(��Sv/h),MP-6(��Sv/h),MP-7(��Sv/h),MP-8(��Sv/h),����,����(m/s),���J
2022/03/05,00:00,0.590,0.878,0.556,1.075,0.767,0.353,0.613,0.577,��쐼,3.3,��
2022/03/05,00:10,0.589,0.878,0.555,1.076,0.768,0.353,0.612,0.579,��쐼,2.9,��
2022/03/05,00:20,0.590,0.879,0.556,1.076,0.767,0.353,0.612,0.579,��쐼,2.8,��
2022/03/05,00:30,0.589,0.878,0.555,1.080,0.766,0.351,0.612,0.578,��쐼,2.0,��
2022/03/05,00:40,0.591,0.878,0.554,1.078,0.769,0.353,0.612,0.578,�쐼,1.5,��
2022/03/05,00:50,0.589,0.881,0.555,1.080,0.768,0.353,0.612,0.579,��쐼,2.2,��
2022/03/05,01:00,0.590,0.876,0.558,1.077,0.768,0.353,0.613,0.579,��쐼,2.8,��
2022/03/05,01:10,0.590,0.878,0.556,1.078,0.768,0.351,0.611,0.579,��,3.2,��
2022/03/05,01:20,0.589,0.878,0.554,1.076,0.769,0.352,0.612,0.578,��,3.3,��
2022/03/05,01:30,0.590,0.877,0.556,1.079,0.767,0.353,0.611,0.579,��,2.6,��
2022/03/05,01:40,0.590,0.878,0.557,1.079,0.768,0.354,0.612,0.579,��,3.1,��
2022/03/05,01:50,0.589,0.879,0.556,1.077,0.768,0.353,0.612,0.578,��,2.5,��
2022/03/05,02:00,0.591,0.877,0.557,1.077,0.767,0.353,0.612,0.580,��,2.2,��
2022/03/05,02:10,0.590,0.880,0.557,1.079,0.767,0.353,0.611,0.577,��쐼,1.5,��
2022/03/05,02:20,0.590,0.878,0.555,1.079,0.768,0.352,0.612,0.579,��쐼,2.6,��
2022/03/05,02:30,0.590,0.879,0.556,1.080,0.767,0.350,0.613,0.578,��,2.3,��
2022/03/05,02:40,0.591,0.876,0.556,1.077,0.768,0.353,0.612,0.578,��쓌,1.1,��
2022/03/05,02:50,0.590,0.878,0.557,1.076,0.767,0.353,0.613,0.579,��쐼,2.0,��
2022/03/05,03:00,0.591,0.878,0.557,1.080,0.766,0.353,0.612,0.580,��쐼,2.8,��
2022/03/05,03:10,0.589,0.876,0.557,1.080,0.770,0.353,0.613,0.578,��쐼,2.3,��
2022/03/05,03:20,0.590,0.878,0.555,1.080,0.768,0.352,0.613,0.580,��쐼,2.9,��
2022/03/05,03:30,0.592,0.877,0.558,1.078,0.768,0.353,0.612,0.579,��,3.4,��
2022/03/05,03:40,0.591,0.877,0.557,1.079,0.768,0.352,0.612,0.580,��,3.2,��
2022/03/05,03:50,0.591,0.878,0.556,1.081,0.767,0.352,0.612,0.579,��,2.9,��
2022/03/05,04:00,0.591,0.880,0.556,1.078,0.769,0.353,0.614,0.580,��,2.5,��
2022/03/05,04:10,0.590,0.878,0.557,1.078,0.767,0.354,0.613,0.578,��,2.8,��
2022/03/05,04:20,0.590,0.877,0.558,1.079,0.769,0.354,0.614,0.579,��,1.9,��
2022/03/05,04:30,0.590,0.878,0.555,1.078,0.768,0.354,0.613,0.578,��,1.7,��
2022/03/05,04:40,0.588,0.876,0.558,1.081,0.768,0.353,0.614,0.578,��쓌,2.3,��
2022/03/05,04:50,0.590,0.879,0.556,1.079,0.768,0.352,0.613,0.579,��쓌,2.3,��
2022/03/05,05:00,0.592,0.877,0.557,1.080,0.767,0.354,0.613,0.578,��쓌,2.0,��
2022/03/05,05:10,0.590,0.879,0.558,1.078,0.769,0.353,0.612,0.578,��쓌,1.7,��
2022/03/05,05:20,0.592,0.878,0.557,1.079,0.769,0.353,0.613,0.579,��,2.5,��
2022/03/05,05:30,0.591,0.879,0.556,1.080,0.768,0.353,0.614,0.580,��쓌,2.2,��
2022/03/05,05:40,0.591,0.878,0.558,1.079,0.769,0.354,0.613,0.579,��쓌,1.9,��
2022/03/05,05:50,0.589,0.878,0.556,1.079,0.766,0.353,0.612,0.579,��,2.6,��
2022/03/05,06:00,0.592,0.878,0.556,1.081,0.767,0.353,0.613,0.581,��,3.0,��
2022/03/05,06:10,0.590,0.878,0.557,1.079,0.767,0.353,0.613,0.578,��쓌,2.6,��
2022/03/05,06:20,0.591,0.879,0.556,1.078,0.768,0.353,0.615,0.578,��쐼,2.6,��
2022/03/05,06:30,0.589,0.879,0.555,1.081,0.767,0.353,0.615,0.580,��,3.5,��
2022/03/05,06:40,0.591,0.879,0.556,1.080,0.768,0.353,0.614,0.579,��쐼,3.8,��
2022/03/05,06:50,0.592,0.877,0.559,1.080,0.770,0.354,0.614,0.578,��쐼,4.6,��
2022/03/05,07:00,0.590,0.879,0.557,1.080,0.766,0.354,0.614,0.578,��,5.0,��
2022/03/05,07:10,0.592,0.878,0.557,1.078,0.769,0.354,0.613,0.579,��쐼,4.6,��
2022/03/05,07:20,0.592,0.880,0.557,1.079,0.768,0.355,0.615,0.579,��,5.3,��
2022/03/05,07:30,0.593,0.879,0.557,1.079,0.767,0.354,0.615,0.579,��,4.6,��
2022/03/05,07:40,0.590,0.881,0.557,1.079,0.768,0.355,0.615,0.579,��,4.0,��
2022/03/05,07:50,0.592,0.879,0.558,1.080,0.769,0.353,0.615,0.579,��,3.0,��
2022/03/05,08:00,0.594,0.881,0.559,1.080,0.768,0.353,0.615,0.580,��,2.6,��
2022/03/05,08:10,0.591,0.879,0.559,1.079,0.767,0.354,0.615,0.580,��,2.3,��
2022/03/05,08:20,0.593,0.879,0.557,1.079,0.767,0.354,0.615,0.581,��,2.3,��
2022/03/05,08:30,0.593,0.879,0.557,1.077,0.771,0.355,0.616,0.579,��쓌,3.0,��
2022/03/05,08:40,0.592,0.878,0.557,1.079,0.769,0.354,0.615,0.580,��쓌,4.1,��
2022/03/05,08:50,0.593,0.879,0.559,1.078,0.768,0.354,0.614,0.579,��쓌,5.6,��
2022/03/05,09:00,0.591,0.877,0.559,1.079,0.769,0.355,0.614,0.581,��쓌,6.6,��
2022/03/05,09:10,0.592,0.875,0.559,1.080,0.768,0.354,0.611,0.580,��쓌,6.8,��
2022/03/05,09:20,0.593,0.875,0.557,1.081,0.768,0.355,0.614,0.581,��쓌,7.8,��
2022/03/05,09:30,0.593,0.876,0.559,1.079,0.769,0.355,0.613,0.580,��쓌,6.9,��
2022/03/05,09:40,0.593,0.876,0.556,1.078,0.768,0.353,0.613,0.579,��쓌,6.5,��
2022/03/05,09:50,0.591,0.876,0.557,1.080,0.768,0.356,0.612,0.581,��쓌,7.5,��
2022/03/05,10:00,0.593,0.876,0.558,1.079,0.767,0.355,0.612,0.582,��쓌,7.7,��
2022/03/05,10:10,0.594,0.874,0.557,1.079,0.768,0.356,0.612,0.580,��쓌,8.6,��
2022/03/05,10:20,0.594,0.875,0.558,1.080,0.767,0.355,0.615,0.579,��쓌,7.2,��
2022/03/05,10:30,0.591,0.876,0.558,1.079,0.768,0.355,0.613,0.579,��쓌,7.8,��
2022/03/05,10:40,0.592,0.875,0.558,1.079,0.771,0.355,0.613,0.579,��쓌,8.5,��
2022/03/05,10:50,0.592,0.876,0.557,1.082,0.770,0.355,0.613,0.579,��쓌,8.7,��
2022/03/05,11:00,0.593,0.876,0.559,1.082,0.770,0.354,0.615,0.580,��쓌,9.5,��
2022/03/05,11:10,0.594,0.877,0.559,1.078,0.771,0.355,0.613,0.579,��쓌,9.5,��
2022/03/05,11:20,0.593,0.876,0.558,1.080,0.769,0.354,0.613,0.579,��쓌,9.4,��
2022/03/05,11:30,0.593,0.878,0.559,1.079,0.770,0.354,0.614,0.579,��쓌,10.8,��
2022/03/05,11:40,0.592,0.878,0.558,1.081,0.770,0.353,0.614,0.579,��쓌,11.9,��
2022/03/05,11:50,0.594,0.879,0.559,1.078,0.769,0.353,0.612,0.578,��쓌,9.8,��
2022/03/05,12:00,0.591,0.877,0.560,1.079,0.771,0.354,0.613,0.578,��쓌,10.9,��
2022/03/05,12:10,0.593,0.878,0.558,1.080,0.771,0.354,0.615,0.577,��쓌,10.5,��
2022/03/05,12:20,0.593,0.879,0.557,1.081,0.770,0.356,0.614,0.580,��쓌,12.1,��
2022/03/05,12:30,0.593,0.876,0.559,1.080,0.769,0.355,0.614,0.581,��쓌,11.7,��
2022/03/05,12:40,0.592,0.877,0.559,1.083,0.768,0.356,0.614,0.579,��쓌,12.0,��
2022/03/05,12:50,0.593,0.879,0.559,1.083,0.768,0.356,0.614,0.581,��쓌,13.0,��
2022/03/05,13:00,0.597,0.877,0.560,1.081,0.769,0.358,0.616,0.579,��,13.3,��
2022/03/05,13:10,0.594,0.878,0.560,1.081,0.769,0.356,0.616,0.581,��,11.8,��
2022/03/05,13:20,0.595,0.877,0.557,1.082,0.769,0.355,0.616,0.579,��,12.7,��
2022/03/05,13:30,0.593,0.877,0.559,1.082,0.768,0.356,0.615,0.578,��쓌,12.4,��
2022/03/05,13:40,0.594,0.876,0.560,1.081,0.767,0.357,0.616,0.579,��쓌,12.8,��
2022/03/05,13:50,0.595,0.876,0.559,1.084,0.769,0.356,0.617,0.580,��,12.4,��
2022/03/05,14:00,0.593,0.879,0.560,1.082,0.769,0.356,0.617,0.579,��쓌,13.8,��
2022/03/05,14:10,0.594,0.878,0.559,1.082,0.769,0.355,0.615,0.578,��,13.6,��
2022/03/05,14:20,0.593,0.878,0.558,1.080,0.769,0.356,0.616,0.579,��,13.3,��
2022/03/05,14:30,0.593,0.877,0.560,1.081,0.769,0.356,0.615,0.580,��쓌,14.9,��
2022/03/05,14:40,0.594,0.878,0.559,1.081,0.769,0.357,0.616,0.580,��쓌,14.1,��
2022/03/05,14:50,0.594,0.875,0.560,1.084,0.768,0.355,0.616,0.580,��,12.0,��
2022/03/05,15:00,0.592,0.878,0.560,1.082,0.769,0.357,0.614,0.580,��,12.4,��
2022/03/05,15:10,0.595,0.879,0.560,1.079,0.771,0.357,0.617,0.580,��쓌,10.5,��
2022/03/05,15:20,0.595,0.879,0.561,1.082,0.769,0.357,0.617,0.579,��,11.0,��
2022/03/05,15:30,0.594,0.879,0.560,1.083,0.770,0.355,0.617,0.581,��,8.7,��
2022/03/05,15:40,0.595,0.880,0.561,1.081,0.770,0.357,0.614,0.579,��,9.5,��
2022/03/05,15:50,0.596,0.881,0.561,1.082,0.771,0.357,0.615,0.579,��,8.7,��
2022/03/05,16:00,0.595,0.881,0.561,1.081,0.772,0.356,0.614,0.580,��,7.6,��
2022/03/05,16:10,0.596,0.881,0.560,1.080,0.769,0.356,0.616,0.581,��,6.4,��
2022/03/05,16:20,0.596,0.883,0.561,1.080,0.767,0.354,0.615,0.582,��쐼,5.1,��
2022/03/05,16:30,0.596,0.882,0.561,1.080,0.768,0.356,0.616,0.582,��쐼,6.4,��
2022/03/05,16:40,0.597,0.882,0.561,1.083,0.769,0.358,0.617,0.583,�쐼,5.4,��
2022/03/05,16:50,0.597,0.882,0.561,1.081,0.771,0.356,0.617,0.582,���k��,6.5,��
2022/03/05,17:00,0.598,0.883,0.561,1.081,0.771,0.357,0.616,0.583,��,11.3,��
2022/03/05,17:10,0.599,0.882,0.561,1.082,0.770,0.357,0.617,0.583,��,9.6,��
2022/03/05,17:20,0.596,0.883,0.560,1.079,0.770,0.358,0.617,0.581,��,8.3,��
2022/03/05,17:30,0.597,0.883,0.561,1.080,0.772,0.356,0.615,0.582,��,11.3,��
2022/03/05,17:40,0.595,0.883,0.561,1.082,0.772,0.357,0.616,0.583,��,13.0,�L
2022/03/05,17:50,0.596,0.884,0.560,1.080,0.770,0.358,0.616,0.582,��,11.1,�L
2022/03/05,18:00,0.596,0.882,0.560,1.080,0.774,0.357,0.615,0.581,��,11.8,�L
2022/03/05,18:10,0.598,0.883,0.561,1.082,0.772,0.356,0.615,0.581,��,11.3,�L
2022/03/05,18:20,0.596,0.881,0.561,1.083,0.773,0.355,0.616,0.583,��,10.8,�L
2022/03/05,18:30,0.596,0.883,0.561,1.082,0.772,0.356,0.614,0.581,���k��,7.6,��
2022/03/05,18:40,0.596,0.881,0.560,1.084,0.773,0.356,0.614,0.583,���k��,8.6,��
2022/03/05,18:50,0.598,0.881,0.560,1.081,0.771,0.356,0.615,0.581,���k��,8.7,��
2022/03/05,19:00,0.596,0.883,0.559,1.081,0.770,0.355,0.615,0.584,���k��,7.8,��
2022/03/05,19:10,0.595,0.884,0.559,1.083,0.771,0.356,0.615,0.582,���k��,7.2,��
2022/03/05,19:20,0.596,0.883,0.561,1.082,0.772,0.356,0.616,0.581,���k��,6.6,��
2022/03/05,19:30,0.596,0.882,0.560,1.083,0.772,0.357,0.615,0.582,���k��,4.4,��
2022/03/05,19:40,0.596,0.882,0.559,1.083,0.771,0.355,0.614,0.581,���k��,7.4,��
2022/03/05,19:50,0.594,0.883,0.560,1.081,0.771,0.355,0.615,0.583,���k��,8.3,��
2022/03/05,20:00,0.596,0.882,0.561,1.083,0.771,0.356,0.615,0.582,�k��,5.9,��
2022/03/05,20:10,0.597,0.878,0.559,1.084,0.772,0.355,0.615,0.583,�k��,9.0,��
2022/03/05,20:20,0.595,0.879,0.559,1.081,0.770,0.355,0.616,0.582,���k��,7.3,��
2022/03/05,20:30,0.595,0.884,0.560,1.082,0.773,0.356,0.617,0.582,���k��,6.7,��
2022/03/05,20:40,0.595,0.883,0.560,1.084,0.772,0.355,0.614,0.582,���k��,6.3,��
2022/03/05,20:50,0.597,0.881,0.561,1.082,0.773,0.355,0.616,0.582,���k��,5.8,��
2022/03/05,21:00,0.595,0.881,0.560,1.081,0.773,0.354,0.616,0.582,���k��,10.2,��
2022/03/05,21:10,0.596,0.882,0.559,1.081,0.770,0.355,0.617,0.582,���k��,10.8,��
2022/03/05,21:20,0.593,0.880,0.559,1.084,0.773,0.355,0.616,0.583,���k��,10.6,��
2022/03/05,21:30,0.594,0.881,0.560,1.083,0.772,0.355,0.616,0.582,���k��,10.3,��
2022/03/05,21:40,0.594,0.880,0.561,1.082,0.774,0.355,0.617,0.581,���k��,11.8,��
2022/03/05,21:50,0.594,0.882,0.559,1.081,0.772,0.355,0.616,0.582,��,12.5,��
2022/03/05,22:00,0.594,0.881,0.559,1.083,0.772,0.356,0.617,0.583,��,14.1,��
2022/03/05,22:10,0.595,0.883,0.558,1.083,0.772,0.355,0.616,0.581,���k��,11.6,��
2022/03/05,22:20,0.595,0.882,0.560,1.082,0.772,0.354,0.617,0.583,��,10.2,��
2022/03/05,22:30,0.592,0.884,0.559,1.084,0.772,0.354,0.617,0.582,���k��,11.6,��
2022/03/05,22:40,0.593,0.881,0.558,1.084,0.770,0.355,0.615,0.582,���k��,11.7,��
2022/03/05,22:50,0.594,0.882,0.560,1.084,0.774,0.355,0.617,0.582,��,12.7,��
2022/03/05,23:00,0.592,0.883,0.558,1.083,0.771,0.354,0.615,0.582,��,14.1,��
2022/03/05,23:10,0.594,0.882,0.560,1.082,0.769,0.356,0.617,0.583,���k��,9.6,��
2022/03/05,23:20,0.595,0.882,0.558,1.084,0.771,0.355,0.617,0.583,���k��,14.1,��
2022/03/05,23:30,0.594,0.882,0.558,1.082,0.773,0.354,0.618,0.583,��,16.0,��
2022/03/05,23:40,0.595,0.882,0.557,1.084,0.771,0.354,0.616,0.582,���k��,12.1,��
2022/03/05,23:50,0.595,0.883,0.557,1.085,0.771,0.353,0.616,0.582,���k��,16.3,��
